| time (UTC) | temp F | wind direction | speed knots | gust knots | rain 1hr in | rain 24hr in | rain mn in | humidity % | barometer mb |
| 20260902051518 | 62 | 128 | 4.3 | 4.3 | 0.00 | 0.00 | 0.00 | 81 | 1014.8 |
| 20260902050019 | 62 | 117 | 3.5 | 4.3 | 0.00 | 0.00 | 0.00 | 80 | 1014.8 |
| 20260902044518 | 61 | 111 | 3.5 | 4.3 | 0.00 | 0.00 | 0.00 | 80 | 1014.8 |
| 20260902043018 | 61 | 111 | 2.6 | 3.5 | 0.00 | 0.00 | 0.00 | 79 | 1014.8 |
| 20260902041520 | 61 | 110 | 2.6 | 3.5 | 0.00 | 0.00 | 0.00 | 79 | 1014.8 |
| 20260902040018 | 61 | 110 | 2.6 | 3.5 | 0.00 | 0.00 | 0.00 | 78 | 1014.8 |
| 20260902034519 | 62 | 109 | 3.5 | 4.3 | 0.00 | 0.00 | 0.00 | 78 | 1014.8 |
| 20260902033018 | 62 | 107 | 3.5 | 4.3 | 0.00 | 0.00 | 0.00 | 79 | 1014.8 |
| 20260902031518 | 62 | 104 | 1.7 | 3.5 | 0.00 | 0.00 | 0.00 | 78 | 1014.8 |
| 20260902030018 | 62 | 104 | 2.6 | 3.5 | 0.00 | 0.00 | 0.00 | 77 | 1014.8 |
| 20260902024518 | 62 | 104 | 4.3 | 5.2 | 0.00 | 0.00 | 0.00 | 76 | 1014.8 |
| 20260902023018 | 62 | 104 | 4.3 | 5.2 | 0.00 | 0.00 | 0.00 | 75 | 1014.8 |
| 20260902021518 | 62 | 104 | 4.3 | 5.2 | 0.00 | 0.00 | 0.00 | 74 | 1014.8 |
| 20260902020018 | 63 | 101 | 5.2 | 5.2 | 0.00 | 0.00 | 0.00 | 73 | 1014.8 |
| 20260902014518 | 63 | 97 | 4.3 | 5.2 | 0.00 | 0.00 | 0.00 | 73 | 1014.8 |
| 20260902013018 | 63 | 94 | 4.3 | 5.2 | 0.00 | 0.00 | 0.00 | 72 | 1014.8 |
| 20260902011518 | 63 | 95 | 4.3 | 5.2 | 0.00 | 0.00 | 0.00 | 71 | 1014.8 |
| 20260902010018 | 63 | 95 | 4.3 | 5.2 | 0.00 | 0.00 | 0.00 | 70 | 1014.8 |
| 20260902004519 | 63 | 75 | 3.5 | 4.3 | 0.00 | 0.00 | 0.00 | 69 | 1014.8 |
| 20260902003039 | 64 | 64 | 3.5 | 4.3 | 0.00 | 0.00 | 0.00 | 68 | 1014.8 |
| 20260902001519 | 65 | 54 | 2.6 | 3.5 | 0.00 | 0.00 | 0.00 | 66 | 1014.8 |
| 20260902000018 | 65 | 27 | 3.5 | 4.3 | 0.00 | 0.00 | 0.00 | 66 | 1014.8 |
| 20260901234600 | 65 | 349 | 3.5 | 4.3 | 0.00 | 0.00 | 0.00 | 66 | 1014.8 |
| 20260901233018 | 65 | 335 | 2.6 | 3.5 | 0.00 | 0.00 | 0.00 | 66 | 1014.8 |
| 20260901231518 | 65 | 0.0 | 0.0 | 0.00 | 0.00 | 0.00 | 65 | 1014.8 | |
| 20260901230018 | 66 | 0.0 | 0.0 | 0.00 | 0.00 | 0.00 | 64 | 1014.8 | |
| 20260901224518 | 66 | 0.0 | 0.0 | 0.00 | 0.00 | 0.00 | 62 | 1014.8 | |
| 20260901223018 | 67 | 0.0 | 0.0 | 0.00 | 0.00 | 0.00 | 62 | 1014.8 | |
| 20260901221539 | 67 | 0.0 | 1.7 | 0.00 | 0.00 | 0.00 | 62 | 1014.8 | |
| 20260901220019 | 67 | 313 | 0.0 | 2.6 | 0.00 | 0.00 | 0.00 | 61 | 1014.8 |
| 20260901214518 | 67 | 0.0 | 0.0 | 0.00 | 0.00 | 0.00 | 60 | 1014.8 | |
| 20260901213018 | 67 | 0.0 | 0.0 | 0.00 | 0.00 | 0.00 | 60 | 1014.8 | |
| 20260901211518 | 67 | 0.0 | 0.0 | 0.00 | 0.00 | 0.00 | 59 | 1014.8 | |
| 20260901210018 | 68 | 0.0 | 0.0 | 0.00 | 0.00 | 0.00 | 59 | 1014.8 | |
| 20260901204539 | 68 | 0.0 | 0.0 | 0.00 | 0.00 | 0.00 | 59 | 1014.8 | |
| 20260901203018 | 68 | 0.0 | 0.0 | 0.00 | 0.00 | 0.00 | 59 | 1014.8 | |
| 20260901201518 | 68 | 0.0 | 0.0 | 0.00 | 0.00 | 0.00 | 58 | 1014.8 | |
| 20260901200017 | 69 | 310 | 0.9 | 4.3 | 0.00 | 0.00 | 0.00 | 58 | 1014.8 |
| 20260901194539 | 69 | 0.0 | 0.0 | 0.00 | 0.00 | 0.00 | 58 | 1014.8 | |
| 20260901193018 | 69 | 310 | 0.0 | 3.5 | 0.00 | 0.00 | 0.00 | 58 | 1014.8 |
| 20260901191539 | 69 | 310 | 0.9 | 3.5 | 0.00 | 0.00 | 0.00 | 57 | 1014.8 |
| 20260901190017 | 70 | 309 | 4.3 | 5.2 | 0.00 | 0.00 | 0.00 | 56 | 1014.8 |
| 20260901184518 | 70 | 308 | 4.3 | 6.1 | 0.00 | 0.00 | 0.00 | 55 | 1014.8 |
| 20260901183018 | 71 | 304 | 5.2 | 6.1 | 0.00 | 0.00 | 0.00 | 54 | 1014.8 |
| 20260901181518 | 72 | 300 | 4.3 | 5.2 | 0.00 | 0.00 | 0.00 | 51 | 1014.8 |
| 20260901180020 | 73 | 297 | 5.2 | 7.0 | 0.00 | 0.00 | 0.00 | 49 | 1014.8 |
| 20260901174517 | 74 | 292 | 6.1 | 7.8 | 0.00 | 0.00 | 0.00 | 48 | 1014.8 |
| 20260901173018 | 75 | 291 | 5.2 | 7.8 | 0.00 | 0.00 | 0.00 | 46 | 1014.8 |
| 20260901171518 | 76 | 302 | 3.5 | 6.1 | 0.00 | 0.00 | 0.00 | 45 | 1014.8 |
| 20260901170018 | 77 | 292 | 4.3 | 7.8 | 0.00 | 0.00 | 0.00 | 45 | 1014.8 |
| 20260901164517 | 77 | 290 | 5.2 | 8.7 | 0.00 | 0.00 | 0.00 | 44 | 1014.8 |
| 20260901163018 | 77 | 300 | 3.5 | 5.2 | 0.00 | 0.00 | 0.00 | 44 | 1014.8 |
| 20260901161518 | 78 | 289 | 4.3 | 7.8 | 0.00 | 0.00 | 0.00 | 44 | 1014.8 |
| 20260901160018 | 78 | 295 | 5.2 | 8.7 | 0.00 | 0.00 | 0.00 | 44 | 1014.8 |
| 20260901154518 | 78 | 297 | 6.1 | 10.4 | 0.00 | 0.00 | 0.00 | 43 | 1014.8 |
| 20260901153018 | 78 | 278 | 6.1 | 11.3 | 0.00 | 0.00 | 0.00 | 43 | 1014.8 |
| 20260901151518 | 78 | 282 | 6.1 | 11.3 | 0.00 | 0.00 | 0.00 | 44 | 1014.8 |
| 20260901150039 | 78 | 296 | 7.0 | 11.3 | 0.00 | 0.00 | 0.00 | 43 | 1014.8 |
| 20260901144559 | 79 | 287 | 7.0 | 14.8 | 0.00 | 0.00 | 0.00 | 42 | 1014.8 |
| 20260901143018 | 79 | 281 | 4.3 | 9.6 | 0.00 | 0.00 | 0.00 | 42 | 1014.8 |
| 20260901141518 | 79 | 287 | 6.1 | 10.4 | 0.00 | 0.00 | 0.00 | 42 | 1014.8 |
| 20260901140018 | 79 | 308 | 7.8 | 12.2 | 0.00 | 0.00 | 0.00 | 43 | 1014.8 |
| 20260901134518 | 80 | 293 | 7.0 | 10.4 | 0.00 | 0.00 | 0.00 | 42 | 1014.8 |
| 20260901133018 | 80 | 286 | 4.3 | 7.8 | 0.00 | 0.00 | 0.00 | 42 | 1014.8 |
| 20260901131518 | 80 | 269 | 8.7 | 13.0 | 0.00 | 0.00 | 0.00 | 42 | 1014.8 |
| 20260901130018 | 81 | 277 | 6.1 | 10.4 | 0.00 | 0.00 | 0.00 | 44 | 1015.7 |
| 20260901124518 | 80 | 287 | 7.8 | 13.0 | 0.00 | 0.00 | 0.00 | 45 | 1015.9 |
| 20260901123044 | 78 | 262 | 6.1 | 10.4 | 0.00 | 0.00 | 0.00 | 46 | 1015.9 |
| 20260901121544 | 79 | 270 | 7.8 | 12.2 | 0.00 | 0.00 | 0.00 | 45 | 1015.9 |
| 20260901120024 | 79 | 269 | 7.0 | 12.2 | 0.00 | 0.00 | 0.00 | 48 | 1015.9 |
| 20260901114523 | 77 | 261 | 6.1 | 9.6 | 0.00 | 0.00 | 0.00 | 52 | 1015.9 |
| 20260901113059 | 76 | 287 | 6.1 | 10.4 | 0.00 | 0.00 | 0.00 | 52 | 1015.9 |
| 20260901111520 | 76 | 278 | 5.2 | 8.7 | 0.00 | 0.00 | 0.00 | 53 | 1015.9 |
| 20260901110018 | 77 | 275 | 5.2 | 8.7 | 0.00 | 0.00 | 0.00 | 53 | 1015.9 |
| 20260901104518 | 76 | 270 | 4.3 | 7.0 | 0.00 | 0.00 | 0.00 | 58 | 1015.9 |
| 20260901103038 | 75 | 268 | 4.3 | 7.0 | 0.00 | 0.00 | 0.00 | 56 | 1015.9 |
| 20260901101517 | 76 | 279 | 6.1 | 9.6 | 0.00 | 0.00 | 0.00 | 54 | 1015.9 |
| 20260901100038 | 76 | 256 | 3.5 | 6.1 | 0.00 | 0.00 | 0.00 | 59 | 1015.9 |
| 20260901094538 | 75 | 231 | 4.3 | 6.1 | 0.00 | 0.00 | 0.00 | 60 | 1015.9 |
| 20260901093017 | 75 | 237 | 4.3 | 6.1 | 0.00 | 0.00 | 0.00 | 63 | 1015.9 |
| 20260901091518 | 73 | 252 | 3.5 | 7.8 | 0.00 | 0.00 | 0.00 | 69 | 1015.9 |
| 20260901090018 | 70 | 268 | 3.5 | 5.2 | 0.00 | 0.00 | 0.00 | 73 | 1015.9 |
| 20260901084538 | 68 | 259 | 4.3 | 6.1 | 0.00 | 0.00 | 0.00 | 80 | 1015.9 |
| 20260901083018 | 66 | 264 | 2.6 | 6.1 | 0.00 | 0.00 | 0.00 | 83 | 1015.9 |
| 20260901081517 | 64 | 272 | 2.6 | 5.2 | 0.00 | 0.00 | 0.00 | 84 | 1015.9 |
| 20260901080018 | 63 | 277 | 1.7 | 5.2 | 0.00 | 0.00 | 0.00 | 86 | 1015.9 |
| 20260901074518 | 62 | 286 | 3.5 | 5.2 | 0.00 | 0.00 | 0.00 | 87 | 1015.9 |
| 20260901073038 | 61 | 277 | 1.7 | 5.2 | 0.00 | 0.00 | 0.00 | 88 | 1015.9 |
| 20260901071538 | 60 | 261 | 1.7 | 5.2 | 0.00 | 0.00 | 0.00 | 89 | 1015.9 |
| 20260901070018 | 59 | 248 | 3.5 | 5.2 | 0.00 | 0.00 | 0.00 | 90 | 1015.9 |
| 20260901064518 | 59 | 245 | 1.7 | 5.2 | 0.00 | 0.00 | 0.00 | 91 | 1015.9 |
| 20260901063017 | 58 | 247 | 3.5 | 5.2 | 0.00 | 0.00 | 0.00 | 91 | 1015.9 |
| 20260901061519 | 58 | 238 | 4.3 | 7.0 | 0.00 | 0.00 | 0.00 | 91 | 1015.9 |
| 20260901060038 | 58 | 215 | 5.2 | 7.0 | 0.00 | 0.00 | 0.00 | 92 | 1015.0 |
| 20260901054518 | 57 | 214 | 5.2 | 6.1 | 0.00 | 0.00 | 0.00 | 92 | 1014.8 |
| 20260901053018 | 57 | 221 | 5.2 | 6.1 | 0.00 | 0.00 | 0.00 | 92 | 1014.8 |